Wenatchee, WA

4:35 AM PDT on August 22, 2017 (GMT -0700)
Pangborn Memorial

Weather History for KEAT - May, 2012

Change the Weather History Date:

Tuesday, May 29, 2012

  Actual Average Record
Temperature  
Mean Temperature 58 °F 56 °F  
Max Temperature 68 °F 68 °F 98 °F (1983)
Min Temperature 48 °F 44 °F 40 °F (1976)
Degree Days  
Heating Degree Days 7 9  
Month to date heating degree days 203 355  
Since 1 July heating degree days 5737 6934  
Cooling Degree Days 0 0  
Month to date cooling degree days 17 0  
Year to date cooling degree days 23 0  
Growing Degree Days 8 (Base 50)    
Moisture  
Dew Point 30 °F    
Average Humidity 36    
Maximum Humidity 50    
Minimum Humidity 22    
Precipitation  
Precipitation 0.00 in 0.08 in 0.16 in (1970)
Month to date precipitation 0.16 1.62  
Year to date precipitation 4.37 7.89  
Snow  
Snow 0.00 in 0.00 in - ()
Month to date snowfall 0.5  
Since 1 July snowfall 54.1  
Snow Depth -    
Sea Level Pressure  
Sea Level Pressure 30.01 in    
Wind  
Wind Speed 13 mph (NW)    
Max Wind Speed 21 mph    
Max Gust Speed 25 mph    
Visibility 10 miles    
Events      
T = Trace of Precipitation, MM = Missing Value Source: NWS Daily Summary

Daily Weather History Graph

Daily Weather History Graph

Search for Another Location

Airport or City:

Trip Planner

Search our weather history database for the weather conditions in past years. The results will help you decide how hot, cold, wet, or windy it might be!

Date:

Astronomy

May. 29, 2012 Rise Set
Actual Time 5:09 AM PDT 8:47 PM PDT
Civil Twilight 4:30 AM PDT 9:26 PM PDT
Nautical Twilight 3:39 AM PDT 10:18 PM PDT
Astronomical Twilight 2:28 AM PDT 11:30 PM PDT
Moon 2:00 PM PDT (5/29) 1:32 AM PDT (5/29)
Length of Visible Light 16h 55m
Length of Day
15h 37m
First Quarter, 60% of the Moon is Illuminated
May 29
First Quarter
Jun 4
Full
Jun 11
Last Quarter
Jun 19
New
Jun 26
First Quarter

Hourly Weather History & Observations

Time (PDT) Temp. Dew Point Humidity Pressure Visibility Wind Dir Wind Speed Gust Speed Precip Events Conditions
12:55 AM 52.0 °F 34.0 °F 50% 29.96 in 10.0 mi NW 13.8 mph - N/A   Clear
1:55 AM 52.0 °F 32.0 °F 47% 29.97 in 10.0 mi NW 10.4 mph - N/A   Clear
2:55 AM 50.0 °F 32.0 °F 50% 29.97 in 10.0 mi NW 12.7 mph - N/A   Clear
3:55 AM 50.0 °F 30.9 °F 48% 29.97 in 10.0 mi WNW 13.8 mph - N/A   Clear
4:55 AM 48.0 °F 30.9 °F 52% 29.99 in 10.0 mi West 8.1 mph - N/A   Clear
5:55 AM 48.0 °F 30.9 °F 52% 30.00 in 10.0 mi WNW 5.8 mph - N/A   Clear
6:55 AM 53.1 °F 30.9 °F 43% 30.01 in 10.0 mi NW 11.5 mph 19.6 mph N/A   Clear
7:55 AM 54.0 °F 32.0 °F 43% 30.03 in 10.0 mi WNW 15.0 mph - N/A   Clear
8:55 AM 55.9 °F 30.9 °F 39% 30.03 in 10.0 mi WNW 18.4 mph - N/A   Clear
9:55 AM 57.9 °F 30.9 °F 36% 30.03 in 10.0 mi NW 18.4 mph 21.9 mph N/A   Clear
10:55 AM 61.0 °F 30.0 °F 31% 30.01 in 10.0 mi WNW 13.8 mph 20.7 mph N/A   Clear
11:55 AM 63.0 °F 30.0 °F 29% 30.01 in 10.0 mi NW 10.4 mph - N/A   Clear
12:55 PM 66.0 °F 28.9 °F 25% 30.01 in 10.0 mi WNW 9.2 mph - N/A   Clear
1:55 PM 66.0 °F 28.0 °F 24% 30.00 in 10.0 mi NW 13.8 mph - N/A   Clear
2:55 PM 66.0 °F 30.0 °F 26% 30.01 in 10.0 mi NW 17.3 mph - N/A   Clear
3:55 PM 66.0 °F 30.0 °F 26% 30.01 in 10.0 mi NW 17.3 mph - N/A   Partly Cloudy
4:55 PM 66.9 °F 27.0 °F 22% 30.01 in 10.0 mi NW 15.0 mph - N/A   Clear
5:55 PM 66.0 °F 28.9 °F 25% 30.00 in 10.0 mi NW 13.8 mph - N/A   Clear
6:55 PM 68.0 °F 28.0 °F 22% 29.99 in 10.0 mi NW 17.3 mph - N/A   Partly Cloudy
7:55 PM 64.0 °F 28.9 °F 27% 30.01 in 10.0 mi WNW 15.0 mph - N/A   Clear
8:55 PM 60.1 °F 28.9 °F 31% 30.03 in 10.0 mi NW 11.5 mph - N/A   Clear
9:55 PM 57.0 °F 30.0 °F 36% 30.04 in 10.0 mi NW 10.4 mph - N/A   Clear
10:55 PM 57.0 °F 30.0 °F 36% 30.05 in 10.0 mi WNW 16.1 mph - N/A   Clear
11:55 PM 55.0 °F 28.9 °F 37% 30.05 in 10.0 mi NW 16.1 mph - N/A   Clear